Massena, NY

5:24 AM EST on February 10, 2016 (GMT -0500)
Massena International-Richards

Weather History for KMSS - May, 2013

Change the Weather History Date:

Friday, May 17, 2013

  Actual Average Record
Temperature  
Mean Temperature 54 °F 56 °F  
Max Temperature 69 °F 67 °F 88 °F (1962)
Min Temperature 38 °F 44 °F 26 °F (1957)
Degree Days  
Heating Degree Days 12 10  
Month to date heating degree days 208  
Since 1 July heating degree days 7990  
Cooling Degree Days 0 0  
Month to date cooling degree days 0 0  
Year to date cooling degree days 0 1  
Growing Degree Days 2 (Base 50)    
Moisture  
Dew Point 39 °F    
Average Humidity 63    
Maximum Humidity 100    
Minimum Humidity 26    
Precipitation  
Precipitation 0.00 in 0.10 in 0.93 in ()
Month to date precipitation 1.39 1.62  
Year to date precipitation 5.89 10.48  
Sea Level Pressure  
Sea Level Pressure 30.12 in    
Wind  
Wind Speed 5 mph (West)    
Max Wind Speed 15 mph    
Max Gust Speed 20 mph    
Visibility 10 miles    
Events      
T = Trace of Precipitation, MM = Missing Value Source: NWS Daily Summary

Daily Weather History Graph

Daily Weather History Graph

Search for Another Location

Airport or City:

Trip Planner

Search our weather history database for the weather conditions in past years. The results will help you decide how hot, cold, wet, or windy it might be!

Date:

Astronomy

May. 17, 2013 Rise Set
Actual Time 5:28 AM EDT 8:24 PM EDT
Civil Twilight 4:53 AM EDT 8:58 PM EDT
Nautical Twilight 4:09 AM EDT 9:42 PM EDT
Astronomical Twilight 3:17 AM EDT 10:35 PM EDT
Moon 12:05 PM EDT (5/17) 1:08 AM EDT (5/17)
Length of Visible Light 16h 05m
Length of Day
14h 56m
Waxing Crescent, 45% of the Moon is Illuminated
May 17
Waxing Crescent
May 18
First Quarter
May 25
Full
May 31
Last Quarter
Jun 8
New

Hourly Weather History & Observations

Time (EDT) Temp. Windchill Dew Point Humidity Pressure Visibility Wind Dir Wind Speed Gust Speed Precip Events Conditions
12:53 AM 44.1 °F - 39.0 °F 82% 29.99 in 10.0 mi Calm Calm - N/A   Mostly Cloudy
1:53 AM 43.0 °F 41.3 °F 37.9 °F 82% 30.01 in 10.0 mi West 3.5 mph - N/A   Partly Cloudy
2:53 AM 41.0 °F 39.0 °F 37.0 °F 86% 30.01 in 10.0 mi West 3.5 mph - N/A   Overcast
3:53 AM 43.0 °F 41.3 °F 39.0 °F 86% 30.03 in 10.0 mi West 3.5 mph - N/A   Mostly Cloudy
4:53 AM 39.9 °F 36.7 °F 37.0 °F 89% 30.04 in 10.0 mi West 4.6 mph - N/A   Clear
5:53 AM 37.9 °F 34.4 °F 37.0 °F 97% 30.08 in 10.0 mi West 4.6 mph - N/A   Clear
6:53 AM 46.0 °F 43.1 °F 41.0 °F 83% 30.10 in 10.0 mi NW 5.8 mph - N/A   Clear
7:53 AM 50.0 °F - 42.8 °F 76% 30.11 in 10.0 mi NW 5.8 mph - N/A   Clear
8:53 AM 53.1 °F - 43.0 °F 69% 30.13 in 10.0 mi Calm Calm - N/A   Clear
9:53 AM 55.9 °F - 44.1 °F 64% 30.15 in 10.0 mi SW 4.6 mph - N/A   Partly Cloudy
10:53 AM 55.9 °F - 44.1 °F 64% 30.16 in 10.0 mi WSW 6.9 mph - N/A   Scattered Clouds
11:53 AM 61.0 °F - 42.1 °F 50% 30.16 in 10.0 mi West 5.8 mph - N/A   Partly Cloudy
12:53 PM 64.0 °F - 41.0 °F 43% 30.15 in 10.0 mi Variable 5.8 mph - N/A   Partly Cloudy
1:53 PM 64.9 °F - 39.9 °F 40% 30.14 in 10.0 mi SSW 5.8 mph - N/A   Scattered Clouds
2:53 PM 64.4 °F - 33.8 °F 32% 30.13 in 10.0 mi WNW 8.1 mph - N/A   Partly Cloudy
3:53 PM 68.0 °F - 32.0 °F 26% 30.13 in 10.0 mi WNW 8.1 mph 16.1 mph N/A   Clear
4:53 PM 68.0 °F - 32.0 °F 26% 30.14 in 10.0 mi West 15.0 mph 19.6 mph N/A   Partly Cloudy
5:53 PM 66.9 °F - 36.0 °F 32% 30.14 in 10.0 mi West 9.2 mph - N/A   Scattered Clouds
6:53 PM 64.9 °F - 35.1 °F 33% 30.15 in 10.0 mi West 6.9 mph - N/A   Clear
7:53 PM 62.1 °F - 35.1 °F 37% 30.16 in 10.0 mi West 5.8 mph - N/A   Partly Cloudy
8:53 PM 55.9 °F - 39.0 °F 53% 30.17 in 10.0 mi Calm Calm - N/A   Mostly Cloudy
9:53 PM 54.0 °F - 39.9 °F 59% 30.20 in 10.0 mi SW 5.8 mph - N/A   Overcast
10:53 PM 50.0 °F - 41.0 °F 71% 30.22 in 10.0 mi Calm Calm - N/A   Scattered Clouds
11:53 PM 46.9 °F - 41.0 °F 80% 30.23 in 10.0 mi SSW 4.6 mph - N/A   Clear